TIME,DELAY(SENSOR),PRES,T(CTD),SAL,OXYGEN,RAWTEMP,T(OPTODE),TCPHASE,FLUOR,BETA(BETA700),BETA(BETA412),BETA(BETA440),CDOM,C(CSC),ED(ED412.40),ED(ED444.00),ED(ED489.70),ED(ED554.30),LU(LU411.80),LU(LU443.40),LU(LU489.60),LU(LU554.10),COMP,TILTX,TILTX(TILTY),CHECK
1341696406,5806,497.4400024414062500,6.9052000045776370,34.2042999267578100,62.5168914794921900,590.5980224609375000,6.8875679969787600,50.9552001953125000,52,108,92,81,80,15367,2147749174,2147420873,2148003510,2147873910,2147631405,2147083904,2148244032,2147201636,281,4,12,16334
1341696552,5808,486.3099975585937500,7.0131001472473145,34.1991996765136700,66.5882492065429700,587.2529296875000000,6.9952788352966310,50.3775215148925800,52,106,88,80,81,15369,2147748233,2147419209,2148003291,2147872740,2147632886,2147083053,2148239862,2147203730,2549,4,13,21709
1341696695,5808,475.6199951171875000,7.2828998565673830,34.1850013732910160,73.7744598388671900,578.8317260742188000,7.2659840583801270,49.3550300598144500,51,106,89,81,80,15366,2147750390,2147420653,2148002276,2147874925,2147629952,2147084352,2148237138,2147206235,27,4,13,38786
1341696863,5809,461.5000000000000000,7.3948001861572270,34.1791992187500000,80.2792434692382800,575.2780761718750000,7.3800239562988280,48.5169601440429700,52,106,88,80,80,15364,2147749028,2147420278,2148005476,2147876434,2147628480,2147084745,2148237193,2147206390,187,4,12,350
1341696962,5811,451.4700012207031000,7.5015997886657715,34.1763992309570300,83.9489593505859400,572.0028076171875000,7.4850349426269530,48.0341415405273440,51,106,91,81,79,15367,2147747940,2147418724,2148006290,2147874706,2147626624,2147089901,2148232228,2147201060,3406,4,13,39035
1341697083,5806,439.5100097656250000,7.7624001502990720,34.1683998107910160,90.5049285888671900,563.7767944335938000,7.7483558654785160,47.1627693176269500,52,106,91,80,79,15366,2147749641,2147419940,2148002834,2147876187,2147624091,2147081773,2148236105,2147204489,3095,5,13,3890
1341697206,5807,428.2099914550781000,8.0136995315551760,34.1665992736816400,101.2291030883789000,555.8571166992188000,8.0013217926025390,45.8701210021972660,51,109,90,81,78,15366,2147747812,2147421988,2148002102,2147876041,2147623890,2147085732,2148234880,2147203940,3031,4,13,62791
1341697338,5807,417.2399902343750000,8.2378997802734380,34.1575012207031250,109.7816009521484400,548.9514160156250000,8.2214698791503900,44.8715782165527340,51,105,90,81,77,15367,2147744128,2147421065,2148003968,2147875529,2147623360,2147098560,2148228068,2147201782,2091,4,13,30349
1341697473,5806,407.0599975585937500,8.5720996856689450,34.1515007019043000,122.5098037719726600,537.5103759765625000,8.5853395462036130,43.4361381530761700,51,107,88,81,78,15368,2147741430,2147423716,2148006930,2147873234,2147622674,2147095789,2148232621,2147203876,2827,5,13,44426
1341697627,5807,395.5799865722656000,8.9490003585815430,34.1441993713378900,139.6640930175781200,525.9362792968750000,8.9523868560791020,41.6900482177734400,50,111,92,80,75,15352,2147745371,2147419922,2148004635,2147873243,2147622134,2147096539,2148231945,2147205485,2953,4,13,53678
1341697781,5804,382.6199951171875000,9.1686000823974610,34.1437988281250000,148.3863983154297000,519.6082153320312000,9.1526365280151370,40.8475189208984400,50,110,91,79,76,15363,2147741915,2147421586,2148004708,2147875885,2147620032,2147100781,2148228973,2147207936,1146,4,13,45210
1341697882,5804,371.9400024414062500,9.4547004699707030,34.1458015441894500,155.4337005615234400,510.6502990722656000,9.4355926513671880,40.1269111633300800,50,110,91,79,75,15363,2147735232,2147420342,2148001408,2147877302,2147614811,2147106569,2148223442,2147209536,1816,5,13,27470
1341697981,5807,360.8900146484375000,9.7033996582031250,34.1473007202148440,160.5668029785156200,502.7406005859375000,9.6849555969238280,39.5914802551269500,50,108,91,80,74,15363,2147739017,2147423881,2148002148,2147874770,2147616457,2147103350,2148221074,2147206034,3352,4,13,6204
1341698091,5810,349.0599975585937500,10.0438003540039060,34.1501007080078100,168.9593048095703000,492.0270080566406000,10.0220203399658200,38.7793006896972660,50,109,90,81,74,15366,2147738441,2147427748,2148005266,2147876022,2147615661,2147112027,2148227949,2147209353,3398,4,13,11768
1341698209,5808,338.8599853515625000,10.3888998031616210,34.1577987670898440,177.2203979492187500,480.3680114746094000,10.3879404067993160,37.9903411865234400,49,108,90,82,72,15365,2147736310,2147424073,2148009956,2147877860,2147611282,2147111579,2148226697,2147207222,149,4,13,19039
1341698366,5806,327.7200012207031000,10.6991996765136720,34.1669006347656250,184.3894958496093800,470.7814941406250000,10.6881599426269530,37.3378601074218750,50,108,87,80,72,15362,2147733641,2147425325,2148012534,2147875520,2147610148,2147110902,2148222966,2147206793,3174,4,13,10649
1341698542,5807,317.5000000000000000,11.0584001541137700,34.1786003112793000,189.2337036132812500,459.4241943359375000,11.0431003570556640,36.8293800354003900,49,108,91,80,72,15364,2147733750,2147426669,2148014747,2147875812,2147607625,2147114550,2148219584,2147211885,1158,4,14,24920
1341698750,5809,305.1799926757812500,11.4465999603271480,34.1953010559082000,203.4019927978515600,446.8428039550781000,11.4354000091552730,35.7347908020019500,49,107,90,80,71,15367,2147733083,2147429010,2148027766,2147873801,2147607771,2147121728,2148227867,2147210432,2114,4,14,44809
1341698871,5809,294.7799987792969000,11.8704996109008790,34.2177009582519500,205.2015991210937500,432.9870910644531000,11.8664197921752930,35.4029884338378900,49,108,90,80,71,15366,2147732891,2147434880,2148039725,2147877010,2147605376,2147124196,2148228836,2147210605,3441,4,14,27717
1341699003,5806,283.1199951171875000,12.3027000427246100,34.2402992248535160,206.8963012695312500,418.9556884765625000,12.3018798828125000,35.0793991088867200,49,107,89,81,69,15368,2147730907,2147437120,2148048612,2147877156,2147602806,2147128950,2148231908,2147214363,256,4,13,49673
1341699115,5808,271.1900024414062500,12.7089004516601560,34.2546997070312500,201.2330017089843800,405.9153137207031000,12.7057199478149410,35.2120094299316400,48,111,90,81,69,15361,2147730898,2147445540,2148076251,2147875958,2147600420,2147138148,2148245494,2147210761,2412,4,13,29541
1341699225,5811,259.5100097656250000,13.2313003540039060,34.2896003723144500,200.5509033203125000,388.7538146972656000,13.2360200881958000,34.9847297668457000,49,107,88,79,70,15362,2147731382,2147455122,2148083282,2147875757,2147600841,2147147154,2148244918,2147208521,3354,4,14,3267
1341699343,5810,249.7799987792968800,14.2992000579833980,34.3745994567871100,201.5171966552734400,354.5567932128906000,14.2892599105834960,34.4009284973144500,49,109,91,82,69,15364,2147730742,2147472283,2148118290,2147876964,2147596169,2147160365,2148257197,2147215680,904,3,14,526
1341699552,5808,240.1300048828125000,15.5343999862670900,34.5080986022949200,206.1674041748047000,314.6441955566406000,15.5138397216796880,33.5315589904785160,50,108,87,81,68,15361,2147733110,2147490944,2148164425,2147875300,2147591670,2147177892,2148270592,2147215049,1285,3,14,26448
1341699770,5808,227.6900024414062500,16.0800991058349600,34.5447998046875000,205.6665954589843800,296.5235900878906000,16.0685596466064450,33.2956314086914060,49,107,90,81,68,15355,2147732937,2147496649,2148146514,2147874770,2147587666,2147189385,2148255405,2147216402,450,3,13,28562
1341699946,5808,215.3999938964843800,18.2838993072509770,34.8037986755371100,210.3473052978515600,224.6408996582031200,18.2649898529052730,32.0097312927246100,54,108,89,81,67,15350,2147745828,2147549476,2148226697,2147871661,2147588534,2147230729,2148293430,2147222774,950,3,15,33626
1341700079,5807,204.8800048828125000,19.4587001800537100,34.9766998291015600,217.1515045166015600,183.5028076171875000,19.5216808319091800,31.0800590515136720,60,108,89,81,65,15344,2147763145,2147572928,2148251867,2147874806,2147590262,2147259218,2148303762,2147225536,472,3,14,12254
1341700178,5806,198.0399932861328000,20.0904998779296880,35.0652008056640600,223.2344970703125000,164.8874053955078000,20.0908908843994140,30.5172691345214840,66,109,90,81,65,15339,2147823369,2147744786,2148552064,2147872621,2147616539,2147361572,2148435099,2147235693,275,3,14,2925
1341700253,5805,193.5500030517578000,20.6485004425048830,35.1388015747070300,224.1622924804687500,147.5279998779297000,20.6222095489501950,30.2408409118652340,69,110,89,81,63,15331,2147777846,2147604324,2148291547,2147876233,2147594925,2147293796,2148305590,2147229019,2727,2,15,45397
1341700330,5809,189.4199981689453000,21.1846008300781250,35.1955986022949200,226.0800018310547000,130.8276977539062500,21.1339607238769530,29.9266490936279300,72,114,89,82,63,15325,2147777024,2147592594,2148257188,2147872054,2147591680,2147290349,2148294134,2147225792,2305,3,15,7807
1341700407,5808,184.9100036621093800,21.4144992828369140,35.2275009155273440,228.6425018310547000,122.6288986206054700,21.3854408264160160,29.6948509216308600,76,114,90,81,63,15314,2147800109,2147638902,2148331227,2147875812,2147601517,2147318811,2148327634,2147232576,2725,3,15,702
1341700462,5806,181.2299957275390600,21.5648002624511720,35.2616996765136700,230.2760009765625000,116.7542037963867200,21.5657596588134770,29.5397891998291000,77,115,88,83,62,15319,2147821860,2147685668,2148405705,2147875574,2147616594,2147353673,2148363721,2147233856,3019,2,16,60540
1341700528,5809,176.7100067138672000,21.7276000976562500,35.2883987426757800,234.7324981689453000,111.5576019287109400,21.7253398895263670,29.2611598968505860,82,115,90,82,61,15312,2147838089,2147711926,2148445787,2147875026,2147624630,2147370715,2148377142,2147234742,2888,2,15,49031
1341700607,5809,171.7400054931640600,21.7940998077392580,35.2985992431640600,237.4477996826172000,109.5735015869140600,21.7862892150878900,29.1091499328613280,85,118,93,83,61,15311,2147855232,2147729078,2148461449,2147875163,2147630381,2147390061,2148387044,2147237924,2583,2,16,27550
1341700673,5808,168.5899963378906200,21.8290996551513670,35.3017997741699200,238.4261932373047000,108.4093017578125000,21.8220596313476560,29.0490398406982420,86,119,93,82,61,15305,2147862107,2147750326,2148484790,2147875392,2147637513,2147398464,2148401782,2147236205,2428,2,15,31980
1341700772,5808,164.7700042724609400,21.8500003814697270,35.3042984008789060,239.6109924316406200,107.6930007934570300,21.8440704345703120,28.9854907989501950,87,118,92,83,62,15304,2147895808,2147804918,2148568054,2147873929,2147655661,2147432877,2148437266,2147238921,1951,2,16,33799
1341700907,5806,161.3000030517578000,21.8899002075195300,35.3075981140136700,240.2364959716797000,106.3432006835937500,21.8855495452880860,28.9395809173584000,88,120,90,82,62,15304,2147984100,2147960713,2148805504,2147876352,2147704448,2147530002,2148558637,2147246006,1580,2,16,58690
1341701160,5810,157.3699951171875000,22.0366001129150400,35.2949981689453100,240.4174041748047000,101.8546981811523400,22.0235195159912100,28.8745803833007800,93,118,93,83,60,15292,2148746322,2149355474,2151089188,2147892004,2148110326,2148387739,2149677924,2147332452,1280,2,16,37521
1341701290,5804,152.3999938964843800,22.1399002075195300,35.3067016601562500,241.2485961914062500,98.2493133544921900,22.1343994140625000,28.7909297943115230,98,118,91,83,61,15286,2148666194,2149111780,2150611675,2147889554,2148075337,2148227282,2149426944,2147313618,1464,2,16,57757
1341701367,5808,148.2500000000000000,22.2422008514404300,35.3200988769531250,242.3240051269531200,95.1284484863281200,22.2304191589355470,28.7027893066406250,100,118,91,83,60,15277,2148780525,2149254080,2150789805,2147889417,2148134308,2148316086,2149510272,2147318144,729,2,15,1394
1341701433,5808,144.5299987792968800,22.2810993194580080,35.3216018676757800,243.6927947998047000,93.6777191162109400,22.2750606536865230,28.6231193542480470,103,119,91,82,60,15272,2149638080,2150683053,2153004461,2147907483,2148592009,2149142994,2150549659,2147401106,478,2,16,42523
1341701510,5805,140.2400054931640600,22.3104991912841800,35.3148994445800800,244.3161926269531200,92.5464172363281200,22.3098793029785160,28.5810794830322270,112,125,89,83,60,15270,2150749238,2152478208,2155745097,2147931337,2149182153,2150160704,2151819099,2147491035,568,2,15,15422
1341701578,5805,136.5800018310547000,22.3393001556396500,35.3088989257812500,244.5169982910156200,91.8066635131836000,22.3326492309570300,28.5629806518554700,112,123,90,83,60,15258,2150282870,2151533787,2154088356,2147920923,2148944630,2149618642,2151079853,2147439113,852,2,16,27666
1341701655,5809,132.8800048828125000,22.5161991119384770,35.2971992492675800,245.1230010986328000,86.5413208007812500,22.4947700500488280,28.4695892333984380,124,122,92,84,60,15235,2151192192,2152881472,2155987922,2147944402,2149412891,2150350272,2151959104,2147508297,1169,2,16,9453
1341701754,5807,128.9400024414062500,22.5310001373291000,35.2918014526367200,244.8182067871093800,85.5003128051757800,22.5268402099609380,28.4700908660888670,138,127,89,84,60,15225,2151688173,2153541632,2156771574,2147958061,2149596882,2150536109,2152137920,2147526957,1162,2,16,36143
1341701864,5810,124.6399993896484400,22.6322002410888670,35.3011016845703100,244.8009948730468800,82.4476013183593800,22.6208896636962900,28.4326705932617200,143,125,89,83,61,15224,2153904576,2156793856,2161136822,2148013549,2150669074,2152142427,2154026230,2147684114,564,2,15,1417
1341701965,5810,120.8899993896484400,22.6639995574951170,35.3012008666992200,245.4649047851562500,81.4007873535156200,22.6531505584716800,28.3899993896484380,138,126,92,84,61,15222,2154579273,2157629833,2161872713,2148036918,2150907190,2152334208,2154140982,2147711277,589,2,16,50045
1341702075,5808,117.1299972534179700,22.7021007537841800,35.2986984252929700,246.3041992187500000,79.9886093139648400,22.6966800689697270,28.3354892730712900,129,125,91,83,61,15237,2153445979,2155634194,2158642578,2148004105,2150369005,2151304365,2152779428,2147608521,716,2,15,57205
1341702207,5809,113.1100006103515600,22.7014007568359380,35.2949981689453100,246.6573028564453000,79.9225234985351600,22.6987209320068360,28.3190097808837900,125,124,92,84,60,15230,2153650267,2155700928,2158322724,2148007314,2150467099,2151303305,2152663524,2147608164,111,2,16,17630
1341702319,5810,108.6900024414062500,22.7637996673584000,35.2841987609863300,246.4122924804687500,78.2146072387695300,22.7513694763183600,28.3085193634033200,108,122,93,84,60,15235,2157778185,2161293997,2164939702,2148136713,2152485878,2154032320,2155537261,2147870646,3417,2,16,14930
1341702407,5810,104.8399963378906200,22.8346996307373050,35.2426986694335940,245.4730987548828000,75.7668380737304700,22.8268508911132800,28.3190708160400400,102,121,92,84,59,15235,2161556022,2166099364,2170168740,2148257572,2154396699,2156518409,2158030198,2148097572,420,2,16,51547
1341702528,5810,101.1800003051757800,23.0207004547119140,35.2369003295898440,244.8746032714843800,69.8750305175781200,23.0086307525634770,28.2719497680664060,96,119,90,84,58,15240,2163685933,2168287259,2171732269,2148323757,2155539154,2157772507,2158969755,2148197888,203,2,15,36503
1341702606,5806,98.6699981689453100,23.0513992309570300,35.2299003601074200,245.2133026123047000,66.9674835205078100,23.0983905792236330,28.2208309173584000,95,120,94,85,59,15240,2173407296,2181064621,2186099190,2148692443,2160547693,2164360731,2165550345,2148808758,2562,2,16,51711
1341702661,5804,96.1800003051757800,23.2581005096435550,35.2219009399414060,245.0910949707031200,61.9233283996582000,23.2541999816894530,28.1632900238037100,90,121,90,84,60,15237,2173737033,2180786477,2184984054,2148731620,2161007186,2164610349,2165379200,2148807661,2799,2,16,19138
1341702716,5809,93.9499969482421900,23.3619995117187500,35.2275009155273440,245.3932952880859400,59.0460700988769500,23.3431205749511720,28.1140708923339840,81,122,95,85,57,15238,2177799113,2185655680,2189862326,2148924105,2163336018,2167361974,2167792896,2149052205,2443,2,16,37200
1341702771,5808,91.7900009155273400,23.5286998748779300,35.2267990112304700,245.4631042480468800,55.2444381713867200,23.4606609344482420,28.0639991760253900,79,122,94,84,60,15241,2178103652,2185637933,2189333842,2148983926,2163804004,2167687634,2167725568,2149056374,2769,2,16,15254
1341702826,5805,89.8899993896484400,23.6711997985839840,35.2154006958007800,245.0281066894531200,49.3086700439453100,23.6443290710449220,28.0093097686767580,76,121,90,84,59,15236,2184907712,2193937846,2198056512,2149306642,2167969097,2172774848,2172355282,2149491282,2982,2,16,47309
1341702881,5808,88.2099990844726600,23.7472000122070300,35.2234001159668000,245.7218017578125000,46.5580787658691400,23.7294902801513670,27.9448509216308600,76,122,93,85,59,15243,2187679021,2197091364,2201102116,2149481865,2170133997,2175208393,2174333120,2149691648,2169,2,16,49659
1341702959,5804,85.3899993896484400,23.7840995788574220,35.2193984985351560,246.2227935791015600,44.8656082153320300,23.7819099426269530,27.9020900726318360,74,121,93,85,58,15237,2192874788,2202929289,2206856320,2149909312,2174052022,2179543972,2177763163,2150050523,1948,2,17,36910
1341703014,5809,82.5999984741211000,23.9060993194580080,35.2193984985351560,246.1920013427734400,41.1248588562011700,23.8978195190429700,27.8572998046875000,73,120,93,85,60,15237,2196842514,2206929819,2210188224,2150230180,2177646482,2183254701,2180477778,2150344594,2526,2,16,8183
1341703069,5808,79.9800033569336000,23.9913005828857420,35.2122001647949200,246.1042938232422000,38.1673507690429700,23.9895000457763670,27.8245792388916000,72,121,92,85,58,15237,2201747510,2212612196,2215886784,2150612928,2181114194,2187023286,2183400521,2150651245,2360,2,16,18891
1341703124,5810,77.6100006103515600,24.1597003936767580,35.2018013000488300,245.5339050292968800,33.1297912597656250,24.1457691192626950,27.7872505187988280,71,124,94,85,58,15229,2194206171,2202088758,2203664036,2150228964,2176902208,2181354240,2177611218,2150124653,1674,2,16,64159
1341703179,5808,75.8399963378906200,24.1650009155273440,35.2025985717773440,245.4331970214843800,32.7540016174316400,24.1574401855468750,27.7869892120361330,70,123,93,85,56,15228,2178437394,2182087323,2181872320,2149243830,2167846098,2169964105,2167086363,2149064859,1331,2,16,4441
1341703234,5807,74.1299972534179700,24.1879005432128900,35.2001991271972660,245.1672973632812500,31.5556392669677730,24.1946296691894530,27.7839107513427730,72,123,93,87,59,15231,2219957970,2232052736,2234360877,2152141366,2194699026,2201961197,2195183488,2151927158,1588,2,17,34293
1341703312,5805,71.3300018310546900,24.3101997375488280,35.1882019042968750,244.7368927001953000,28.1142501831054700,24.3014907836914060,27.7601203918457030,68,123,92,85,60,15230,2212204269,2221436836,2222223140,2151974153,2189817920,2195014317,2187961810,2151309366,2188,2,16,38515
1341703367,5816,68.9499969482421900,24.3500995635986330,35.1846008300781250,244.8395996093750000,26.4536495208740230,24.3530693054199220,27.7353591918945300,69,122,94,84,56,15225,2217136228,2225644699,2225192521,2152394221,2195871597,2201135222,2192404032,2151773357,1792,2,16,25389
1341703422,5808,66.8300018310546900,24.6019001007080080,35.1582984924316400,244.0411987304687500,19.4627990722656250,24.5703907012939450,27.6842994689941400,66,124,96,85,58,15217,2239987437,2251779812,2252073865,2154712429,2211948525,2218849929,2206564891,2153366747,1381,3,16,37931
1341703488,5806,65.4899978637695300,24.7352008819580080,35.1478996276855500,243.6502075195312500,14.9148197174072270,24.7119102478027340,27.6454792022705080,66,122,93,84,56,15222,2241442029,2252534409,2251900022,2155132553,2215260498,2221525549,2207778532,2153516123,1873,2,16,56796
1341703677,5817,63.4599990844726560,25.0949993133544920,35.1109008789062500,241.7046051025390600,2.8091039657592773,25.0891799926757800,27.5825099945068360,64,124,94,86,58,15209,2254568411,2266153974,2264123702,2156438409,2229251181,2235025993,2216531035,2154452050,1777,1,16,22079
1341703787,5806,61.4900016784668000,25.1811008453369140,35.1039009094238300,241.0841064453125000,-0.0385522805154324,25.1780395507812500,27.5747890472412100,63,123,93,86,54,15216,2261355364,2272335341,2269093915,2157263314,2240014601,2245324525,2223348836,2155209819,1561,2,16,54828
1341703897,5809,59.2599983215332000,25.2157001495361330,35.1018981933593750,240.8995056152343800,-1.3501169681549072,25.2189903259277340,27.5669593811035160,63,120,91,84,57,15210,2272727680,2284482633,2281079460,2159233755,2251527817,2256269924,2231200292,2156112054,1264,2,16,5701
1341703974,5807,57.0499992370605500,25.3269004821777340,35.0900993347168000,240.3728942871093800,-4.6061129570007320,25.3206806182861330,27.5503292083740230,62,121,93,84,57,15209,2287485878,2299924333,2295539456,2161434742,2268427785,2272678381,2241988352,2157487232,1339,2,16,14371
1341704029,5807,55.0800018310546900,25.3901004791259770,35.0830001831054700,239.9727020263672000,-7.0690340995788570,25.3976497650146500,27.5377292633056640,58,123,91,86,57,15214,2297089280,2309686061,2304673078,2163054491,2280898029,2284365083,2249718720,2158498176,785,2,16,41512
1341704095,5802,52.8400001525878900,25.4307003021240230,35.0810012817382800,239.5563049316406200,-8.4041023254394530,25.4393901824951170,27.5398693084716800,57,120,94,86,59,15210,2305318253,2318585289,2313898084,2166486290,2291731995,2293410157,2254810066,2159346907,117,2,16,41704
1341704150,5805,51.1199989318847660,25.5270004272460940,35.0708007812500000,238.6174011230468800,-11.1342296600341800,25.5247707366943360,27.5482196807861330,57,120,94,84,59,15210,2310651913,2323884324,2318244352,2167613632,2303029092,2303446582,2260949961,2160269696,2742,2,16,21191
1341704227,5809,49.0299987792968750,25.5379009246826170,35.0707015991210940,238.0973968505859400,-11.5893898010253900,25.5390090942382800,27.5658092498779300,58,122,93,85,57,15206,2334791378,2350741979,2345404891,2173244708,2335851410,2335761142,2283430701,2163159579,2169,2,16,34286
1341704305,5808,46.0900001525878900,25.5410995483398440,35.0699005126953100,237.8950042724609400,-11.7818498611450200,25.5450305938720700,27.5725402832031250,56,119,95,83,56,15210,2338413485,2354974080,2351742317,2178555328,2341992649,2338564525,2283139894,2164194066,2067,2,16,17894
1341704360,5808,43.1500015258789060,25.5454998016357420,35.0694999694824200,237.9689941406250000,-11.9764795303344730,25.5511207580566400,27.5669898986816400,55,118,93,84,60,15206,2356122861,2372210742,2367575332,2183764900,2379023195,2373482294,2306537024,2167254884,2030,2,16,36606
1341704415,5808,40.1199989318847660,25.5482997894287100,35.0691986083984400,237.9962005615234400,-12.1693401336669920,25.5571498870849600,27.5633392333984380,55,121,91,85,55,15202,2379123748,2397837586,2395566464,2195183689,2407145984,2399616228,2323916470,2170845961,1884,2,16,25293
1341704470,5806,37.1699981689453100,25.5489006042480470,35.0704002380371100,237.9837036132812500,-12.0030403137207030,25.5519504547119140,27.5659294128417970,53,120,94,84,57,15186,2250068955,2250796544,2243855990,2166621814,2271049270,2259422144,2221401435,2157077796,1662,1,16,19999
1341704525,5808,34.2299995422363300,25.5506992340087900,35.0702018737793000,238.0776977539062500,-12.0069704055786130,25.5520706176757800,27.5616397857666000,54,119,93,84,57,15198,2269996553,2272380489,2266284187,2175107885,2291016512,2277779364,2233877156,2159906496,1427,2,16,7716
1341704580,5807,31.2099990844726560,25.5585002899169920,35.0700988769531250,237.9884033203125000,-12.3444004058837890,25.5626296997070300,27.5615501403808600,53,119,91,87,53,15182,2327018112,2333698102,2328634907,2195957988,2381023195,2363595300,2291914166,2168787154,1352,2,15,7417
1341704637,5809,28.2000007629394530,25.5589008331298830,35.0695991516113300,238.2738037109375000,-12.6474103927612300,25.5721092224121100,27.5451393127441400,53,118,92,86,60,15197,2442080740,2462382208,2465162541,2247201408,2507349028,2486417371,2379216877,2185689965,1319,2,16,1111